User: anonymous   Login
Location: Newark
(29.9790°N, 31.1340°E)
Time: 08:01:30
(UTC+00:00)
Language:

Courier 1B Rocket - Orbit

View from above orbital plane
View from above orbital plane
View from above satellite
View from above satellite

Ground track
Ground track

The orbit data is extracted from the following two-line orbital elements,

1    59U 60013B   20020.64781696  .00000127  00000-0  53199-4 0  9996
2    59  28.2471 262.5872 0189221 117.2498 244.7457 13.52973574926946
Epoch (UTC): 20 January 2020 15:32:51
Eccentricity: 0.0189221
inclination: 28.2471°
perigee height: 920 km
apogee height: 1202 km
right ascension of ascending node: 262.5872°
argument of perigee: 117.2498°
revolutions per day: 13.52973574
mean anomaly at epoch: 244.7457°
orbit number at epoch: 92694

The dashed part of the orbit path shows where the satellite is in the earth's shadow,  

DLR